Dewpoint
11 12 12 11 12 12 11 10 10 11 12 12 12 12 12 12 12 12 12 11 11 8 9 7 7 5 6 6 7 7 7 5 2 1 -2 3 0 0 5 4 3 1 2
11 12 12 12 12 11 12 12 11 10 10 11 12 12 12 12 11 12 12 11 11 10 9 9 9 8 8 8 8 8 9 8 7 2 0 3 2 -1 3 7 3 2 0
11 11 11 12 12 12 12 12 11 11 11 10 11 12 11 10 9 9 10 11 10 10 10 8 9 9 9 9 9 11 10 10 8 5 1 -0 3 1 -1 1 7 3 1
10 10 10 11 11 11 11 11 11 12 11 11 11 10 10 10 10 10 9 9 9 10 11 10 9 9 9 9 9 8 10 11 10 8 4 4 -0 3 -0 -0 2 8 5
2 0 4 5 7 9 9 10 10 11 11 11 11 11 11 11 10 10 10 10 10 9 10 12 11 9 9 9 9 9 9 9 11 10 6 5 2 2 5 1 -1 2 7
-6 -10 -13 -13 -6 -1 2 3 3 5 6 7 7 6 3 0 -1 -0 -1 1 6 10 10 9 10 11 10 9 9 9 10 10 9 10 7 6 5 0 -2 0 3 -1 1
-25 -26 -27 -26 -25 -23 -22 -21 -20 -24 -27 -29 -29 -31 -33 -33 -31 -23 -14 -6 -1 3 8 9 11 11 11 11 11 11 10 10 10 10 10 8 6 6 7 5 1 -2 -0
-31 -31 -31 -32 -31 -29 -29 -29 -30 -29 -30 -31 -31 -32 -28 -20 -22 -18 -25 -25 -10 1 5 6 9 10 11 11 11 11 11 10 10 10 10 10 9 8 6 7 8 6 -0
-35 -35 -34 -33 -33 -33 -32 -31 -31 -31 -30 -29 -29 -27 -18 -14 -5 -4 -7 -7 -8 -3 3 5 6 8 9 10 9 10 10 10 10 10 10 10 10 11 10 9 7 8 8
-36 -37 -36 -36 -35 -34 -33 -32 -31 -31 -29 -28 -28 -28 -26 -10 -8 -5 -1 1 2 2 4 7 8 8 7 8 9 9 9 9 9 9 10 11 10 10 11 11 10 9 7
-36 -36 -37 -36 -36 -35 -35 -33 -32 -30 -29 -26 -25 -26 -24 -25 -23 -18 -7 -6 -2 0 2 4 6 7 7 5 8 8 9 9 8 8 10 10 10 10 10 10 11 11 11
-32 -34 -36 -36 -36 -36 -35 -34 -34 -33 -31 -30 -27 -25 -25 -21 -22 -21 -22 -20 -17 -15 -16 -16 -13 -6 -1 3 5 6 7 8 8 8 7 8 9 10 10 10 10 10 11
-27 -29 -32 -34 -35 -35 -36 -35 -35 -33 -30 -29 -27 -26 -23 -23 -21 -18 -16 -17 -20 -23 -23 -20 -19 -21 -19 -8 -2 1 2 4 5 5 6 7 8 8 8 9 9 9 10
-23 -26 -28 -31 -33 -35 -35 -35 -35 -34 -33 -31 -29 -27 -24 -22 -21 -20 -19 -19 -18 -19 -21 -17 -14 -13 -14 -16 -16 -14 -10 -5 -3 -1 -1 3 5 6 7 7 8 7 9
-21 -23 -25 -28 -30 -33 -34 -35 -35 -33 -32 -30 -28 -27 -25 -23 -21 -20 -18 -17 -17 -17 -17 -11 -10 -11 -12 -13 -13 -14 -15 -17 -19 -20 -20 -21 -21 -14 -3 2 2 4 6
-18 -20 -21 -24 -27 -30 -32 -34 -35 -34 -32 -29 -27 -26 -23 -21 -20 -18 -17 -15 -15 -14 -15 -17 -11 -11 -10 -10 -12 -15 -16 -18 -18 -17 -16 -15 -14 -15 -17 -20 -22 -10 4
-17 -18 -19 -21 -23 -26 -29 -31 -33 -33 -33 -33 -31 -29 -25 -22 -20 -18 -17 -15 -14 -12 -11 -15 -15 -15 -15 -15 -16 -16 -17 -17 -17 -16 -16 -16 -15 -16 -16 -16 -16 -15 -18
-18 -17 -17 -18 -20 -22 -25 -28 -31 -32 -33 -34 -33 -33 -31 -29 -25 -21 -17 -15 -13 -11 -10 -11 -14 -15 -15 -16 -17 -18 -19 -18 -18 -19 -18 -18 -17 -16 -16 -16 -17 -16 -14
-19 -19 -18 -18 -18 -19 -21 -23 -25 -28 -30 -32 -33 -33 -31 -30 -28 -26 -23 -20 -18 -15 -12 -11 -15 -17 -18 -19 -21 -23 -24 -24 -23 -22 -21 -20 -19 -19 -18 -18 -17 -17 -17
-15 -19 -19 -18 -17 -17 -18 -19 -21 -24 -26 -28 -29 -29 -28 -26 -26 -25 -24 -23 -20 -17 -16 -14 -14 -17 -19 -22 -22 -22 -27 -27 -29 -29 -29 -28 -26 -24 -22 -20 -19 -18 -16
-13 -16 -20 -19 -18 -18 -18 -18 -19 -21 -24 -27 -29 -28 -25 -22 -22 -21 -16 -16 -15 -15 -15 -15 -14 -14 -15 -16 -16 -16 -19 -24 -28 -30 -28 -26 -25 -25 -25 -24 -22 -21 -19
-11 -13 -18 -21 -20 -19 -18 -18 -18 -19 -22 -24 -27 -28 -26 -23 -18 -15 -12 -9 -8 -9 -9 -9 -8 -9 -10 -9 -11 -13 -16 -16 -12 -19 -19 -24 -21 -23 -21 -21 -21 -20 -20
-11 -11 -15 -22 -21 -20 -19 -19 -19 -19 -19 -22 -26 -28 -28 -23 -19 -17 -14 -12 -12 -12 -11 -10 -10 -10 -11 -12 -14 -11 -11 -9 -9 -9 -10 -17 -15 -18 -16 -16 -15 -15 -15
-12 -11 -13 -21 -23 -22 -21 -20 -19 -19 -19 -21 -24 -27 -26 -21 -17 -15 -15 -14 -13 -14 -14 -14 -13 -12 -11 -10 -9 -8 -8 -8 -8 -9 -10 -13 -13 -13 -12 -13 -13 -13 -12
-11 -12 -12 -18 -24 -23 -23 -22 -21 -20 -20 -21 -24 -27 -24 -20 -18 -15 -9 -10 -10 -12 -13 -12 -10 -9 -10 -9 -9 -9 -10 -10 -10 -12 -12 -10 -10 -12 -13 -13 -12 -12 -10
-9 -12 -12 -15 -23 -24 -24 -23 -22 -21 -20 -22 -25 -27 -24 -21 -18 -10 -10 -11 -12 -13 -12 -12 -12 -11 -11 -11 -11 -12 -12 -12 -12 -10 -9 -11 -12 -12 -12 -12 -7 -8 -11
Wind_Speed
17 17 17 17 16 16 15 15 13 15 16 14 12 11 10 11 9 5 2 1 1 1 2 4 4 4 5 5 6 8 11 12 11 9 6 7 7 7 8 8 9 10 11
17 17 18 17 17 16 15 15 15 13 15 17 17 15 13 9 12 12 8 3 2 2 3 3 2 4 3 2 2 4 6 9 10 9 7 5 5 6 6 6 7 7 8
19 20 18 18 16 17 16 15 17 16 16 15 17 17 15 13 10 10 12 11 7 5 5 6 5 3 3 3 3 2 2 5 8 9 6 4 3 4 4 4 5 6 6
21 18 17 17 18 15 14 13 17 20 21 21 18 17 16 14 13 12 11 12 11 9 7 8 8 7 6 4 4 4 2 1 3 6 6 5 1 1 2 2 3 4 4
14 12 11 16 16 15 16 16 16 18 19 19 18 18 18 17 16 16 15 14 13 14 11 10 9 9 9 8 6 5 5 3 3 3 4 4 3 1 1 1 1 3 3
15 15 17 16 15 15 16 16 17 18 17 17 17 16 17 16 16 17 16 16 16 14 14 13 13 13 11 11 10 9 9 7 4 5 2 3 2 1 2 3 5 3 4
14 14 14 14 15 15 15 16 17 16 17 16 14 14 13 14 15 16 16 16 16 15 16 14 11 10 12 12 12 12 12 11 10 6 6 3 2 3 3 2 5 6 5
12 12 12 13 14 14 14 15 15 15 15 13 12 9 6 9 9 8 10 14 16 17 18 17 17 14 13 12 13 13 14 14 14 12 10 9 7 6 5 7 7 6 6
11 10 11 12 12 12 13 13 13 14 13 12 11 9 6 6 10 6 7 9 13 16 17 17 15 13 14 16 16 17 17 15 17 14 14 14 12 11 9 9 9 10 9
9 9 10 10 10 11 11 11 11 12 12 12 11 11 11 7 6 7 10 11 12 14 17 17 15 16 15 19 20 21 20 17 17 18 18 18 18 16 13 13 14 12 12
7 8 8 9 9 9 10 10 10 10 11 10 10 9 11 12 13 11 8 12 13 15 16 17 20 22 23 21 22 24 23 23 21 22 20 22 23 22 21 18 17 17 16
6 6 7 7 8 8 9 10 10 11 11 11 10 10 10 11 11 12 14 14 14 14 14 13 13 16 17 20 23 26 26 27 25 26 26 26 26 27 25 25 24 23 21
4 5 5 6 7 8 8 9 9 9 9 10 11 10 10 11 11 12 12 12 11 10 7 7 11 15 17 18 18 19 20 22 22 24 25 25 26 28 28 30 29 29 29
3 4 4 6 6 7 7 8 9 9 9 10 11 11 10 11 11 11 12 11 10 9 9 10 12 14 16 17 19 21 22 23 24 25 25 26 27 28 29 30 32 33 33
3 4 4 5 5 6 7 7 8 9 9 10 10 11 11 11 11 11 12 12 11 6 7 9 11 14 17 17 18 18 20 19 20 21 23 23 25 28 31 32 33 35 36
4 4 4 5 5 6 6 7 7 8 8 9 10 10 10 10 11 11 11 12 12 13 14 12 16 18 18 20 21 22 23 24 25 25 26 26 27 27 29 30 31 34 37
4 4 4 5 5 5 6 6 7 8 9 8 9 10 11 11 11 12 13 13 13 15 20 23 24 24 26 27 27 26 26 27 27 27 27 28 30 29 29 30 31 32 34
7 7 6 6 6 6 6 6 6 7 8 8 9 10 11 11 12 13 13 13 15 15 20 24 25 25 27 26 27 27 26 27 28 28 29 30 31 32 33 33 34 35 35
9 9 9 8 8 7 7 7 7 7 8 8 9 10 11 12 12 14 15 16 17 18 20 23 27 27 28 28 30 30 29 29 28 28 29 29 30 32 33 34 36 37 38
12 12 12 11 10 9 9 9 9 9 8 8 9 10 11 12 13 14 16 16 18 20 21 23 26 29 29 30 31 32 32 30 32 31 30 30 32 33 34 35 37 37 37
15 15 14 13 13 11 11 10 10 10 10 11 11 11 11 12 13 13 14 15 17 20 22 24 27 28 28 29 30 31 33 34 35 34 32 32 33 33 33 34 36 37 39
18 18 18 17 15 13 12 12 12 11 11 12 12 12 13 13 12 12 12 12 14 17 19 22 25 27 28 26 27 31 34 35 37 35 34 40 37 40 38 36 35 36 38
19 20 21 20 18 16 14 14 14 13 13 13 13 14 14 13 14 15 17 18 19 19 20 21 26 28 31 31 30 29 30 32 35 36 38 47 40 42 39 39 37 36 37
20 21 21 21 20 18 17 16 15 15 14 14 14 15 15 15 15 17 18 18 20 22 22 23 25 26 25 23 23 25 30 35 38 36 30 45 40 40 37 38 39 38 36
21 21 21 23 23 20 18 17 16 15 14 14 15 15 16 17 17 13 14 19 22 24 22 19 17 20 23 23 23 26 28 29 32 34 28 28 32 42 46 45 33 27 23
21 21 22 24 23 22 20 18 17 17 16 16 16 16 16 17 17 12 16 21 22 20 20 21 20 19 21 21 18 18 20 24 26 23 11 28 39 37 38 37 10 14 31
Wind_Direction
229 227 224 225 218 214 211 212 209 204 194 190 199 201 199 200 198 200 176 193 36 324 12 29 30 46 59 72 68 64 53 48 42 41 63 76 79 71 61 63 75 72 75
215 218 223 224 223 225 224 228 219 215 221 206 209 211 213 220 197 217 232 222 204 258 268 281 355 19 43 45 59 58 53 46 39 35 41 62 73 80 76 65 62 71 79
215 214 212 215 220 225 228 227 239 229 229 220 214 221 225 236 236 216 223 240 256 252 240 243 258 279 330 347 330 293 33 35 34 28 35 41 52 76 82 73 63 57 70
221 218 211 219 222 223 228 231 242 242 237 238 233 227 231 237 244 247 235 227 238 246 259 240 242 249 265 287 313 342 307 264 8 20 27 30 52 29 93 96 106 80 55
214 219 219 224 222 219 227 231 231 237 240 238 236 240 241 243 242 243 243 241 237 239 246 257 248 246 252 262 268 288 312 322 270 324 5 16 14 229 334 318 195 141 104
218 217 215 216 219 218 225 228 227 232 236 236 238 236 240 243 243 242 240 239 237 234 238 250 255 248 250 257 261 263 273 286 289 263 292 341 5 327 270 280 288 255 190
221 213 219 221 224 220 220 224 232 232 236 239 243 244 242 238 236 236 235 235 235 233 233 239 246 247 249 246 253 256 255 256 269 273 260 257 293 270 281 299 288 279 262
213 219 222 226 225 224 226 226 225 232 235 238 235 226 218 219 216 221 227 228 225 224 229 231 234 242 247 248 249 256 262 262 257 261 262 258 251 263 271 273 273 283 276
219 221 225 228 225 223 223 226 227 230 230 230 226 212 192 197 181 191 205 213 219 219 224 229 233 231 243 246 250 250 256 258 262 258 258 259 255 253 255 262 270 268 273
213 218 225 229 227 225 230 230 234 232 230 228 224 216 218 195 178 178 202 203 212 224 228 228 225 228 230 245 247 250 252 251 258 258 259 258 257 254 256 257 259 262 264
213 219 223 228 234 233 230 231 229 228 232 230 225 225 220 217 217 211 206 211 219 230 238 238 238 241 241 237 244 247 251 254 253 258 260 259 257 254 253 256 262 258 258
215 221 227 231 233 233 230 229 228 231 233 237 235 227 224 224 224 224 228 234 241 239 249 253 247 245 242 243 243 247 250 256 255 258 258 259 260 258 260 258 259 264 264
221 228 232 234 237 238 240 239 235 233 232 234 236 235 235 234 233 237 243 248 255 252 246 252 238 242 243 244 248 250 254 257 258 258 260 260 260 264 261 260 258 259 259
238 234 237 239 240 244 241 242 238 237 236 237 240 238 238 240 242 244 250 253 265 261 246 228 235 242 250 251 253 256 260 264 267 269 267 264 263 262 261 259 259 257 259
238 238 240 244 244 244 244 245 246 245 240 239 240 240 240 242 245 246 252 256 255 253 248 226 232 244 249 254 258 261 265 266 270 271 274 274 270 267 264 261 263 260 255
233 237 241 247 246 246 247 244 245 248 247 244 244 246 247 246 246 248 250 252 255 255 250 245 238 247 254 259 265 267 269 272 273 272 272 273 272 270 270 269 267 262 257
267 262 257 252 251 250 250 250 247 247 247 249 250 252 254 255 255 254 253 254 254 256 262 262 264 265 266 269 269 273 276 274 273 273 271 271 273 273 272 271 271 268 264
264 267 266 264 261 259 257 258 259 264 263 259 260 259 258 258 259 260 260 260 259 259 266 274 276 278 281 282 286 284 280 278 278 274 270 266 267 268 269 270 271 271 270
260 263 264 265 267 269 272 273 272 268 270 271 266 265 265 265 263 264 265 263 266 266 268 275 281 284 288 292 291 289 290 289 285 282 280 277 272 269 267 264 263 264 266
260 261 262 263 265 269 272 272 274 275 276 275 275 273 272 272 270 266 266 267 268 270 274 277 282 286 290 293 295 299 296 294 293 291 287 283 279 275 272 271 269 269 265
261 259 259 260 261 263 265 269 274 279 282 280 277 275 274 272 271 272 274 274 275 277 278 282 285 290 293 296 300 302 300 300 298 299 297 293 291 285 280 277 276 273 270
257 254 255 255 257 263 268 275 278 279 281 281 280 279 276 276 278 274 267 268 272 283 289 290 291 291 295 300 298 300 302 306 311 302 302 295 298 295 296 295 287 278 272
262 254 249 250 253 257 263 270 277 284 288 289 288 285 281 277 273 271 273 273 272 269 267 275 279 282 289 293 298 302 304 303 300 301 305 301 306 303 305 298 293 289 285
265 257 251 248 248 251 256 262 270 277 284 288 289 286 281 279 279 280 281 281 278 279 282 279 278 284 289 294 294 291 290 290 293 297 303 299 309 304 303 299 301 302 294
265 259 252 246 248 248 252 257 265 273 279 283 284 282 279 278 279 286 287 279 281 283 284 281 274 272 276 280 281 285 287 291 296 301 310 295 307 308 307 304 308 303 299
264 259 251 245 246 247 250 255 263 273 279 282 280 278 277 277 274 273 265 271 280 283 289 286 283 287 289 289 287 284 288 290 297 310 304 298 301 313 315 311 291 295 297
Height
1536 1539 1542 1545 1545 1547 1548 1549 1552 1554 1555 1557 1558 1559 1560 1562 1564 1564 1564 1565 1565 1566 1566 1567 1567 1567 1567 1567 1567 1567 1566 1565 1564 1564 1563 1561 1561 1561 1561 1560 1559 1559 1559
1532 1535 1538 1541 1543 1544 1546 1548 1549 1552 1554 1555 1556 1557 1558 1559 1561 1562 1563 1563 1564 1566 1566 1566 1567 1568 1567 1567 1567 1567 1566 1566 1565 1564 1564 1563 1562 1562 1562 1562 1561 1560 1560
1528 1531 1534 1537 1538 1540 1542 1544 1548 1549 1551 1553 1553 1554 1556 1557 1558 1560 1561 1562 1563 1563 1564 1564 1566 1566 1568 1567 1567 1566 1566 1566 1566 1565 1565 1564 1563 1563 1563 1563 1562 1562 1561
1525 1528 1527 1532 1535 1535 1537 1539 1543 1546 1548 1550 1551 1551 1552 1554 1555 1556 1558 1559 1561 1561 1563 1564 1564 1564 1566 1566 1567 1566 1565 1565 1566 1566 1564 1565 1564 1564 1562 1564 1563 1562 1562
1525 1525 1525 1530 1532 1532 1534 1536 1538 1541 1544 1545 1546 1548 1549 1551 1551 1552 1553 1555 1557 1558 1559 1561 1563 1562 1563 1565 1565 1565 1566 1565 1565 1566 1565 1563 1564 1564 1564 1565 1565 1561 1562
1521 1522 1527 1529 1527 1528 1530 1533 1535 1536 1541 1541 1542 1543 1545 1547 1548 1549 1549 1551 1553 1555 1557 1558 1559 1561 1561 1562 1564 1564 1564 1564 1564 1565 1564 1564 1563 1563 1563 1562 1566 1563 1561
1520 1523 1524 1522 1524 1524 1527 1530 1533 1532 1534 1535 1539 1540 1541 1542 1542 1544 1545 1546 1549 1551 1551 1554 1555 1556 1558 1559 1560 1561 1561 1561 1562 1563 1564 1563 1564 1563 1564 1562 1564 1563 1562
1519 1519 1520 1520 1521 1521 1524 1526 1528 1529 1531 1532 1535 1536 1539 1541 1540 1541 1541 1542 1543 1546 1548 1549 1551 1553 1555 1555 1557 1559 1559 1560 1559 1560 1561 1561 1561 1562 1562 1562 1563 1562 1560
1516 1515 1517 1519 1517 1518 1520 1523 1525 1526 1527 1529 1531 1533 1534 1534 1537 1538 1538 1539 1541 1542 1543 1545 1548 1551 1553 1552 1554 1555 1555 1557 1558 1557 1557 1558 1557 1558 1559 1560 1561 1561 1559
1513 1512 1515 1516 1516 1516 1518 1519 1520 1523 1525 1526 1527 1528 1528 1531 1532 1536 1537 1538 1538 1540 1541 1543 1545 1548 1548 1548 1549 1550 1551 1553 1553 1553 1554 1554 1554 1553 1554 1556 1558 1558 1557
1509 1511 1511 1513 1515 1516 1516 1517 1517 1520 1522 1523 1525 1522 1527 1527 1528 1530 1532 1534 1536 1537 1539 1540 1541 1543 1543 1544 1544 1544 1546 1548 1549 1549 1551 1550 1550 1549 1550 1550 1552 1553 1553
1508 1509 1510 1512 1514 1515 1515 1516 1515 1517 1519 1520 1521 1523 1522 1525 1525 1527 1529 1531 1532 1534 1535 1536 1537 1536 1536 1538 1539 1540 1540 1542 1542 1543 1544 1545 1545 1546 1546 1545 1546 1548 1548
1507 1508 1508 1509 1512 1513 1513 1514 1513 1515 1515 1517 1518 1519 1520 1521 1522 1524 1527 1528 1528 1531 1532 1533 1531 1530 1532 1532 1533 1534 1534 1536 1536 1537 1537 1539 1539 1540 1540 1540 1539 1540 1541
1505 1506 1506 1509 1509 1511 1511 1513 1512 1512 1513 1515 1516 1516 1517 1518 1520 1521 1523 1524 1526 1527 1528 1529 1528 1527 1528 1528 1528 1527 1528 1529 1530 1531 1530 1531 1531 1532 1532 1532 1533 1533 1533
1505 1506 1507 1507 1508 1509 1509 1509 1510 1511 1511 1513 1513 1514 1514 1515 1517 1518 1519 1520 1522 1522 1524 1525 1525 1524 1524 1524 1523 1524 1523 1523 1525 1523 1524 1523 1523 1522 1523 1523 1525 1526 1525
1506 1505 1504 1506 1508 1507 1508 1508 1508 1509 1510 1509 1510 1511 1511 1512 1513 1515 1515 1517 1517 1518 1518 1519 1520 1521 1521 1520 1518 1518 1517 1517 1521 1518 1516 1515 1516 1514 1514 1514 1514 1517 1517
1503 1503 1504 1505 1505 1505 1505 1505 1506 1506 1507 1506 1507 1508 1509 1509 1511 1511 1512 1512 1514 1514 1513 1514 1514 1516 1515 1513 1513 1511 1510 1510 1511 1512 1508 1506 1508 1507 1506 1506 1506 1506 1507
1502 1503 1502 1503 1502 1503 1503 1505 1504 1503 1504 1504 1504 1505 1505 1505 1506 1508 1508 1508 1510 1508 1509 1507 1506 1507 1506 1506 1505 1502 1503 1503 1501 1503 1501 1499 1500 1499 1498 1497 1496 1496 1496
1501 1500 1500 1501 1501 1501 1501 1501 1501 1501 1501 1501 1501 1502 1502 1501 1502 1503 1503 1504 1503 1504 1503 1502 1499 1500 1498 1499 1496 1495 1493 1493 1492 1492 1492 1490 1490 1489 1489 1488 1487 1486 1486
1498 1498 1498 1498 1498 1498 1498 1499 1498 1498 1499 1498 1498 1497 1497 1498 1498 1498 1499 1498 1498 1499 1498 1496 1495 1495 1493 1492 1489 1488 1485 1485 1482 1482 1482 1481 1479 1478 1478 1477 1477 1477 1477
1494 1494 1495 1495 1496 1496 1497 1497 1497 1496 1495 1495 1496 1494 1493 1493 1493 1494 1493 1493 1493 1494 1493 1490 1491 1489 1487 1486 1484 1482 1478 1475 1472 1473 1470 1468 1467 1468 1468 1467 1466 1466 1465
1489 1489 1490 1491 1492 1493 1493 1493 1493 1494 1493 1493 1491 1489 1489 1489 1489 1490 1489 1489 1489 1489 1487 1487 1486 1483 1482 1480 1479 1477 1473 1469 1465 1464 1460 1457 1458 1454 1454 1455 1454 1452 1450
1483 1484 1485 1486 1488 1489 1489 1489 1489 1489 1488 1487 1485 1485 1485 1484 1484 1484 1484 1484 1484 1484 1484 1483 1480 1479 1476 1476 1473 1471 1469 1466 1462 1459 1455 1443 1447 1442 1443 1439 1439 1438 1437
1477 1478 1480 1481 1482 1484 1484 1485 1485 1484 1484 1483 1482 1481 1480 1480 1480 1480 1479 1479 1478 1478 1478 1476 1475 1473 1472 1471 1470 1467 1464 1460 1456 1453 1453 1437 1438 1433 1431 1429 1428 1427 1424
1471 1472 1473 1475 1477 1479 1479 1480 1480 1480 1479 1478 1478 1477 1477 1476 1475 1475 1475 1474 1473 1472 1471 1470 1469 1468 1467 1466 1464 1460 1458 1454 1447 1445 1446 1438 1431 1424 1420 1416 1418 1416 1414
1465 1465 1466 1468 1471 1473 1474 1474 1475 1475 1475 1474 1474 1473 1472 1472 1471 1472 1471 1469 1467 1466 1465 1464 1462 1462 1461 1459 1458 1456 1453 1448 1446 1440 1441 1437 1428 1425 1408 1404 1407 1408 1409